Weather History for KTUS - July, 2013

Change the Weather History Date:

Thursday, July 25, 2013

  Actual Average Record
Temperature  
Mean Temperature 85 °F 86 °F  
Max Temperature 93 °F 98 °F 109 °F (1943)
Min Temperature 76 °F 75 °F 65 °F (1913)
Degree Days  
Heating Degree Days 0 0  
Month to date heating degree days 0 0  
Since 1 June heating degree days 0 0  
Since 1 July heating degree days 0 0  
Cooling Degree Days 20 21  
Month to date cooling degree days 538 560  
Year to date cooling degree days 1990 1656  
Since 1 June cooling degree days 1279 1154  
Growing Degree Days 36 (Base 50)    
Moisture  
Dew Point 66 °F    
Average Humidity 59    
Maximum Humidity 74    
Minimum Humidity 44    
Precipitation  
Precipitation 0.01 in 0.09 in 1.27 in (1981)
Month to date precipitation 2.58 1.68  
Year to date precipitation 4.35 4.95  
Snow  
Snow 0.00 in - - ()
Month to date snowfall 0.0  
Snow Depth 0.00 in    
Sea Level Pressure  
Sea Level Pressure 29.93 in    
Wind  
Wind Speed 4 mph (SSE)    
Max Wind Speed 15 mph    
Max Gust Speed 20 mph    
Visibility 10 miles    
Events Rain , Thunderstorm    
T = Trace of Precipitation, MM = Missing Value Source: NWS Daily Summary

Daily Weather History Graph

Daily Weather History Graph

Search for Another Location

Airport or City:

Trip Planner

Search our weather history database for the weather conditions in past years. The results will help you decide how hot, cold, wet, or windy it might be!

Date:

Astronomy

Jul. 25, 2013 Rise Set
Actual Time 5:34 AM MST 7:25 PM MST
Civil Twilight 5:07 AM MST 7:52 PM MST
Nautical Twilight 4:34 AM MST 8:25 PM MST
Astronomical Twilight 3:59 AM MST 9:00 PM MST
Moon 9:26 PM MST (7/25) 8:52 AM MST (7/25)
Length of Visible Light 14h 45m
Length of Day
13h 51m
Waning Gibbous, 87% of the Moon is Illuminated
Jul 25
Waning Gibbous
Jul 29
Last Quarter
Aug 6
New
Aug 14
First Quarter
Aug 20
Full

Hourly Weather History & Observations

Time (MST) Temp. Heat Index Dew Point Humidity Pressure Visibility Wind Dir Wind Speed Gust Speed Precip Events Conditions
12:53 AM 79.0 °F - 66.9 °F 66% 29.85 in 10.0 mi SSW 4.6 mph - N/A   Scattered Clouds
1:53 AM 79.0 °F - 68.0 °F 69% 29.86 in 10.0 mi Calm Calm - N/A   Partly Cloudy
2:53 AM 79.0 °F - 66.9 °F 66% 29.85 in 10.0 mi South 6.9 mph - N/A   Clear
3:53 AM 79.0 °F - 66.0 °F 64% 29.86 in 10.0 mi South 6.9 mph - N/A   Partly Cloudy
4:53 AM 78.1 °F - 66.9 °F 68% 29.87 in 10.0 mi SE 9.2 mph - N/A   Mostly Cloudy
5:53 AM 79.0 °F - 66.0 °F 64% 29.88 in 10.0 mi SE 8.1 mph - N/A   Mostly Cloudy
6:53 AM 78.1 °F - 69.1 °F 74% 29.90 in 10.0 mi SE 3.5 mph - 0.01 in   Clear
7:53 AM 80.1 °F 82.7 °F 68.0 °F 67% 29.91 in 10.0 mi Calm Calm - N/A   Scattered Clouds
8:53 AM 84.0 °F 86.5 °F 66.9 °F 56% 29.92 in 10.0 mi SSE 6.9 mph - N/A   Clear
9:53 AM 89.1 °F 91.3 °F 66.0 °F 46% 29.92 in 10.0 mi East 5.8 mph - N/A   Clear
10:53 AM 90.0 °F 91.7 °F 64.9 °F 43% 29.91 in 10.0 mi ENE 9.2 mph - N/A   Partly Cloudy
11:22 AM 91.9 °F 93.3 °F 64.0 °F 39% 30.06 in 10.0 mi NNE 4.6 mph - N/A Thunderstorm Partly Cloudy
11:35 AM 91.9 °F 93.3 °F 64.0 °F 39% 30.05 in 10.0 mi Calm Calm - N/A Thunderstorm Thunderstorm
11:53 AM 91.0 °F 91.9 °F 63.0 °F 39% 29.89 in 10.0 mi Calm Calm - N/A Thunderstorm Thunderstorm
12:06 PM 90.0 °F 90.6 °F 63.0 °F 40% 30.05 in 10.0 mi Calm Calm - N/A Thunderstorm Scattered Clouds
12:31 PM 82.0 °F 84.1 °F 66.0 °F 58% 30.05 in 10.0 mi Calm Calm - N/A Thunderstorm Thunderstorm
12:46 PM 84.0 °F 85.8 °F 64.9 °F 53% 30.04 in 10.0 mi Calm Calm - N/A Thunderstorm Clear
12:53 PM 82.9 °F 85.0 °F 66.0 °F 56% 29.91 in 10.0 mi Calm Calm - N/A Thunderstorm Clear
1:53 PM 86.0 °F 87.3 °F 64.0 °F 48% 29.91 in 10.0 mi SSW 13.8 mph 17.3 mph N/A Thunderstorm Clear
2:53 PM 82.9 °F 84.6 °F 64.9 °F 54% 29.91 in 10.0 mi Calm Calm - N/A Thunderstorm Mostly Cloudy
3:02 PM 84.0 °F 85.8 °F 64.9 °F 53% 30.05 in 10.0 mi North 3.5 mph - N/A   Scattered Clouds
3:53 PM 84.0 °F 85.8 °F 64.9 °F 53% 29.91 in 10.0 mi Calm Calm - 0.00 in Rain Light Rain
4:53 PM 84.0 °F 85.8 °F 64.9 °F 53% 29.90 in 10.0 mi Calm Calm - 0.00 in   Clear
5:53 PM 84.0 °F 86.3 °F 66.0 °F 55% 29.90 in 10.0 mi Calm Calm - N/A   Clear
6:53 PM 84.0 °F 86.5 °F 66.9 °F 56% 29.92 in 10.0 mi SSW 6.9 mph - N/A   Clear
7:53 PM 82.9 °F 86.5 °F 69.1 °F 63% 29.92 in 10.0 mi South 4.6 mph - N/A   Clear
8:53 PM 82.0 °F 84.9 °F 68.0 °F 62% 29.93 in 10.0 mi South 5.8 mph - N/A   Clear
9:53 PM 81.0 °F 84.4 °F 70.0 °F 69% 29.94 in 10.0 mi South 6.9 mph - N/A   Clear
10:53 PM 80.1 °F 83.2 °F 70.0 °F 71% 29.94 in 10.0 mi SSE 3.5 mph - N/A   Clear
11:53 PM 79.0 °F - 69.1 °F 72% 29.94 in 10.0 mi ESE 3.5 mph - N/A   Clear